ERS-1

operational
NORAD ID: 21574 Int'l Des: 1991-050 Owner: ESA Country: I-ESA
LEOCIRCULARRETROGRADESSO

ERS-1について

説明を読み込み中...

リアルタイム位置

3D地球を読み込み中...

次回通過

高度履歴

Altitude vs Time

uPlot chart will show altitude changes over time

軌道要素

1 21574U 91050A 26063.06692984 .00000443 00000-0 15629-3 0 9992
2 21574 98.7885 81.1601 0031323 217.3678 142.5330 14.39444371814921
Epoch: Mar 4, 2026 • Age: 9 hours

現在のステータス

高度 750.9 km
速度 7.49 km/s
衛星直下点 -34.26°S, 45.78°W
打ち上げ日 Jul 17, 1991
運用期間 34.6 years
タイプ other

技術仕様

分類 Payload
質量 2384.00 kg
乾燥質量 2080.00 kg
総質量 2384.00 kg
長さ 11.80 m
直径 2.50 m
スパン 11.80 m
形状 Box + Pan
製造者 DASAF
バスタイプ ESA ERS
フェーズステータス In Orbit
所有者/国 ESA/I-ESA

大規模コンステレーション

Loading constellations...